Location: Keeble Observatory
(37.7625°N, 77.4755°W)
Time: 23:59:57
(UTC-04:00)

Daily predictions for brighter satellites

Satellite Brightness Start Highest point End
(mag) Time Altitude Azimuth Time Altitude Azimuth Time Altitude Azimuth
Cosmos 1538 Rocket 4.4 20:59:17 10° N 21:04:31 53° ENE 21:09:44 10° SE
CZ-2C R/B 1.2 21:06:56 10° SE 21:08:16 21° ENE 21:09:39 10° NNE
Cosmos 332 Rocket 4.0 21:06:08 10° NNW 21:10:59 75° WSW 21:15:49 10° S
H-2A R/B 2.5 21:11:54 10° SSE 21:16:15 51° ENE 21:20:39 10° N
USA 229 DEB 3.7 21:11:49 10° SSW 21:18:40 70° ESE 21:25:37 10° NE
USA 229 3.7 21:11:56 10° SSW 21:18:46 69° ESE 21:25:43 10° NE
Cosmos 540 Rocket 4.4 21:15:05 10° NNW 21:20:03 49° WSW 21:25:00 10° S
Cosmos 1328 Rocket 3.6 21:16:54 10° N 21:21:21 72° E 21:25:45 10° SSE
Cosmos 1441 Rocket 3.1 21:17:44 10° S 21:21:30 66° E 21:25:14 10° NNE
S3M 4.0 21:19:38 10° N 21:25:47 82° E 21:31:55 10° S
Cosmos 2322 Rocket 2.3 21:20:21 10° NNW 21:25:59 85° WSW 21:31:35 10° SSE
Cosmos 773 Rocket 4.4 21:23:03 10° N 21:28:05 49° ENE 21:32:42 12° SE
Cosmos 2228 Rocket 3.5 21:28:06 10° NNW 21:32:33 64° W 21:37:00 10° S
Cosmos 1743 Rocket 4.1 21:29:29 10° SSW 21:33:54 64° W 21:38:21 10° N
Cosmos 2292 4.2 21:32:03 10° N 21:35:04 89° W 21:38:20 10° S
Cosmos 1980 Rocket 4.1 21:30:41 10° NW 21:35:17 26° WSW 21:39:53 10° SSW
SL-16 R/B 2.4 21:30:20 10° NNW 21:36:00 75° WSW 21:41:39 10° SSE
Cosmos 2360 Rocket 2.8 21:30:51 10° N 21:36:11 41° ENE 21:40:36 15° SE
Cosmos 968 Rocket 4.3 21:33:34 10° SSW 21:38:37 54° WNW 21:43:45 10° N
NOSS 3-1 (A) 4.5 21:34:30 10° SSE 21:38:48 22° ESE 21:43:21 10° ENE
Cosmos 1500 Rocket 3.6 21:35:56 10° S 21:40:17 81° W 21:44:43 10° N
ATLAS CENTAUR R/B 3.0 21:37:54 10° NW 21:41:48 30° WSW 21:45:25 10° S
Cosmos 1908 3.3 21:39:23 10° N 21:43:15 59° E 21:46:18 15° SSE
Cosmos 371 Rocket 4.1 21:42:21 10° NNW 21:46:58 48° WSW 21:51:34 10° S
deb Chang Zheng 4 4.2 21:44:16 10° N 21:48:32 60° WNW 21:52:49 10° SSW
MetOp-B 4.4 21:45:27 15° SE 21:49:45 55° ENE 21:54:59 10° N
Cosmos 1939 Rocket 3.2 21:47:33 10° S 21:51:30 65° W 21:55:23 10° NNW
DELTA 2 R/B(2) 3.1 21:54:05 10° W 21:55:44 80° N 21:57:18 17° ENE
Delta 2 Rocket 3.0 21:52:46 10° WSW 21:56:12 48° S 21:58:00 23° ESE
Cosmos 1674 2.8 21:54:07 10° S 21:57:56 79° W 22:01:48 10° N
Envisat 3.1 21:53:30 11° S 21:58:22 76° WSW 22:03:28 10° NNW
SPOT 5 2.7 21:55:18 16° SSE 21:58:54 86° ENE 22:03:39 10° NNW
Cosmos 883 Rocket 4.4 21:52:40 10° N 21:58:55 75° E 22:04:05 15° SSE
Cosmos 2227 Rocket 4.0 22:00:43 12° E 22:00:43 12° E 22:02:40 10° ENE
GPS 2-04 Rocket1 4.5 21:57:45 10° WSW 22:01:09 22° SSW 22:02:52 18° S
ATLAS 2AS CENTAUR R/B 4.4 22:00:49 14° ESE 22:01:35 15° ESE 22:05:28 10° ENE
Cosmos 1833 4.5 21:59:20 10° SSW 22:05:03 72° WNW 22:10:45 10° NNE
ERS-1 Rocket 4.3 22:00:40 10° SSW 22:05:17 36° W 22:09:55 10° NNW
Tiangong 1 2.4 22:05:20 10° SSW 22:06:59 23° S 22:06:59 23° S
Cosmos 2333 Rocket 4.2 22:06:19 10° NNE 22:09:45 16° NE 22:13:10 10° E
Cosmos 2112 Rocket 4.1 22:04:39 10° N 22:09:51 61° ENE 22:12:50 25° SE
Cosmos 1300 3.5 22:06:21 10° NNE 22:09:53 34° ENE 22:11:00 28° ESE
Cosmos 1437 Rocket 3.6 22:06:15 10° NNW 22:09:54 46° W 22:13:01 14° SSW
USA 245 2.8 22:10:34 39° E 22:10:49 41° ENE 22:13:10 10° N
Cosmos 2298 Rocket 4.5 22:07:58 21° SSE 22:11:05 41° ESE 22:16:03 10° NNE
Cosmos 1437 2.8 22:08:49 17° SSW 22:11:13 78° W 22:14:31 10° N
DELTA 2 R/B (1) 3.5 22:07:04 10° WNW 22:12:39 87° SSW 22:16:23 21° ESE
PSLV R/B 4.0 22:16:12 24° SSW 22:17:45 46° W 22:20:44 10° NNW
Cosmos 1937 Rocket 4.4 22:18:23 26° ESE 22:19:32 29° E 22:23:58 10° NE
Cosmos 2315 Rocket 3.9 22:15:14 10° N 22:21:28 80° E 22:25:34 23° SSE
Sich 1 3.5 22:20:01 32° SE 22:21:30 43° E 22:25:41 10° NNE
COSMOS 2428 3.2 22:16:31 10° N 22:22:00 48° ENE 22:24:46 27° ESE
Cosmos 1633 Rocket 3.5 22:21:04 32° SE 22:22:23 41° E 22:26:31 10° NNE
Cosmos 2151 3.4 22:18:32 11° SSW 22:22:33 59° W 22:26:43 10° N
YAOGAN 6 2.7 22:23:27 32° S 22:25:02 74° W 22:28:40 10° NNW
Cosmos 405 4.2 22:22:10 10° NNW 22:25:34 39° W 22:27:44 19° SSW
NOSS 3-1 (C) 3.3 22:20:22 10° SSW 22:26:06 70° ESE 22:32:26 10° NE
Cosmos 2297 Rocket 4.0 22:28:40 14° E 22:28:40 14° E 22:30:57 10° ENE
CZ-4C R/B 3.7 22:29:16 36° E 22:29:41 37° ENE 22:32:55 10° N
Cosmos 304 Rocket 3.9 22:24:57 10° NNW 22:29:45 68° WSW 22:32:12 28° S
Cosmos 1328 4.5 22:28:08 15° SSW 22:31:13 53° W 22:35:06 10° N
H-2A R/B 2.8 22:29:35 28° ESE 22:31:42 39° ENE 22:36:42 10° N
Cosmos 1455 4.3 22:30:27 10° NE 22:32:31 14° ENE 22:32:31 14° ENE
Cosmos 1151 Rocket 4.4 22:31:38 10° NNW 22:35:34 35° W 22:38:39 15° SSW
Cosmos 1805 Rocket 3.7 22:33:35 23° SSW 22:36:20 76° W 22:40:48 10° N
Cosmos 2219 Rocket 3.2 22:33:31 10° N 22:38:31 32° ENE 22:40:43 24° E
ARGOS 3.1 22:37:03 31° SSE 22:39:47 88° WSW 22:45:13 10° NNW
Landsat 7 4.0 22:39:24 39° SE 22:40:55 58° ENE 22:45:36 10° N
SWAS 4.5 22:37:13 10° NNW 22:41:33 78° WSW 22:42:49 45° S
Cosmos 2237 4.2 22:37:57 10° NNW 22:43:43 78° ENE 22:46:02 37° SSE
SPOT 1/Viking Rocket 3.8 22:41:07 28° S 22:43:48 66° WSW 22:48:56 10° NNW
Cosmos 1680 Rocket 4.1 22:41:56 10° NNW 22:46:59 50° WSW 22:49:36 27° SSW
Cosmos 2058 3.7 22:46:02 21° SSW 22:48:30 48° W 22:52:29 10° N
Nadezhda 1 Rocket 4.4 22:44:55 10° N 22:50:43 45° ENE 22:52:37 35° ESE
Cosmos 292 Rocket 4.2 22:48:04 10° N 22:52:41 47° ENE 22:53:38 41° ESE
Spot 4 4.5 22:52:29 36° ESE 22:53:31 41° ENE 22:58:05 10° N
Cosmos 2219 4.0 22:49:46 10° SW 22:55:21 52° WNW 23:00:59 10° NNE
Cosmos 1707 Rocket 3.9 22:52:24 10° NNW 22:56:42 59° W 22:58:03 39° SSW
Terra 2.0 22:55:46 47° ESE 22:56:47 58° ENE 23:01:28 10° N
SAR-Lupe-2 4.2 22:57:19 42° ENE 22:57:19 42° ENE 23:00:30 10° N
SL-14 R/B 3.8 22:56:57 36° SW 22:58:16 56° W 23:02:12 10° N
Cosmos 1666 Rocket 4.0 22:56:35 30° SSW 22:58:34 57° W 23:02:56 10° N
Cosmos 1703 3.1 22:58:43 74° ESE 22:58:52 76° E 23:02:47 10° N
Cosmos 1898 Rocket 3.5 22:56:18 27° SSW 22:59:09 82° WNW 23:04:23 10° NNE
Cosmos 1745 Rocket 3.9 22:57:28 37° SSE 23:00:03 72° E 23:06:14 10° N
Cosmos 2150 Rocket 4.1 22:57:11 24° SSW 23:00:35 79° WNW 23:06:05 10° NNE
SL-08 R/B 4.4 22:58:31 33° S 23:01:31 86° E 23:07:50 10° N
Cosmos 1726 2.4 22:58:37 10° NNW 23:02:21 60° W 23:02:46 56° SW
Cosmos 1271 Rocket 2.6 22:59:23 10° N 23:03:14 77° E 23:03:14 77° E
Cosmos 2333 4.1 22:58:10 10° NNW 23:03:56 84° ENE 23:05:40 47° SSE
Spot 2 4.4 23:01:36 10° NNE 23:06:41 63° ESE 23:07:28 55° SE
Cosmos 2237 Rocket 3.1 23:01:49 10° N 23:07:06 37° ENE 23:08:42 31° E
Cosmos 2082 3.9 23:07:20 46° SE 23:08:01 49° ESE 23:13:31 10° NNE
Cosmos 1470 Rocket 3.3 23:11:47 74° ESE 23:11:56 75° E 23:16:15 10° N
Cosmos 220 Rocket 3.9 23:12:13 70° SSW 23:12:43 90° SW 23:17:10 10° NNE
OAO 2 Rocket 4.1 23:07:56 10° WSW 23:11:38 38° SSW 23:11:38 38° SSW
Cosmos 1933 Rocket 3.4 23:13:06 72° SE 23:13:21 75° E 23:17:48 10° N
DMSP B5D2-2 3.9 23:08:27 10° NNE 23:13:42 86° ESE 23:15:08 50° S
IGS 5A 3.3 23:14:41 81° ESE 23:14:49 83° ENE 23:19:00 10° N
Iridium 2 3.8 23:14:54 71° W 23:14:55 71° W 23:18:46 10° N
SeaSat 1 4.0 23:15:33 22° E 23:16:56 25° NE 23:20:53 10° N
Cosmos 2360 Rocket 3.8 23:15:23 10° NW 23:19:54 25° WSW 23:22:22 18° SW
NOSS 3-1 (A) 4.0 23:23:19 10° SW 23:29:03 55° NW 23:35:25 10° NNE
Cosmos 1386 Rocket 4.3 23:27:31 51° S 23:29:11 89° E 23:35:14 10° N
NOSS 0 Rocket 3.8 23:25:48 10° NNW 23:31:59 80° ENE 23:33:19 57° SE
Meteor 2-10 4.4 23:27:12 10° NNW 23:32:53 67° W 23:34:15 50° SSW
Meteor 1-4 Rocket 3.9 23:30:58 10° NNW 23:34:10 34° W 23:34:10 34° W
Cosmos 1626 2.9 23:40:11 51° NNW 23:40:11 51° NNW 23:43:14 10° N
Cosmos 2227 Rocket 2.2 23:42:28 52° SW 23:43:52 79° WNW 23:49:34 10° NNE
ATLAS 2AS CENTAUR R/B 2.8 23:48:09 40° SSW 23:51:17 83° ESE 23:59:20 10° NNE
Cosmos 1862 Rocket 4.2 23:50:53 10° NNW 23:54:46 50° WNW 23:54:46 50° WNW
